AFL9175 UWOR-ULLI

Flight info

Callsign AFL9175
Flight time N/A
Altitude 34000
Route LALEP T750 OKSUD T787 OTKOL T784 ROKUR P164 PINOK N50 GENPA
Aircraft A321/M-SDE3FGHIRWY/LB1

Departure

Time 2026-05-04 17:40
Airport Orsk Airport (UWOR)

Arrival

Time N/A
Airport Pulkovo Airport (ULLI)
Time Latitude Longitude Altitude Speed Heading
2026-05-04 17:29 51.07563 58.59348 896 ft 0 kts 77°
2026-05-04 17:33 51.07565 58.59362 896 ft 3 kts 77°
2026-05-04 17:33 51.07563 58.59387 896 ft 2 kts 108°
2026-05-04 17:34 51.07479 58.59440 896 ft 6 kts 166°
2026-05-04 17:34 51.07438 58.59457 896 ft 7 kts 166°
2026-05-04 17:35 51.07259 58.59626 896 ft 13 kts 77°
2026-05-04 17:35 51.07314 58.59994 894 ft 17 kts 77°
2026-05-04 17:35 51.07341 58.60176 891 ft 18 kts 77°
2026-05-04 17:36 51.07371 58.60380 886 ft 19 kts 76°
2026-05-04 17:36 51.07401 58.60579 885 ft 18 kts 76°
2026-05-04 17:36 51.07430 58.60770 884 ft 17 kts 76°
2026-05-04 17:36 51.07456 58.60939 884 ft 15 kts 76°
2026-05-04 17:37 51.07482 58.61110 883 ft 16 kts 77°
2026-05-04 17:37 51.07507 58.61288 885 ft 17 kts 77°
2026-05-04 17:37 51.07539 58.61467 882 ft 12 kts 58°
2026-05-04 17:37 51.07564 58.61502 882 ft 2 kts 36°
2026-05-04 17:38 51.07571 58.61521 882 ft 4 kts 73°
2026-05-04 17:38 51.07547 58.61537 881 ft 4 kts 208°
2026-05-04 17:38 51.07538 58.61504 881 ft 2 kts 254°
2026-05-04 17:38 51.07536 58.61487 882 ft 3 kts 257°
2026-05-04 17:39 51.07361 58.60324 887 ft 127 kts 257°
2026-05-04 17:39 51.07201 58.59246 904 ft 168 kts 257°
2026-05-04 17:39 51.06917 58.57304 1451 ft 184 kts 258°
2026-05-04 17:40 51.06827 58.55311 2332 ft 178 kts 285°
2026-05-04 17:40 51.07284 58.53470 2742 ft 186 kts 297°
2026-05-04 17:40 51.07941 58.51569 2877 ft 206 kts 298°
2026-05-04 17:40 51.08683 58.49496 2987 ft 226 kts 297°
2026-05-04 17:41 51.09487 58.47196 3179 ft 249 kts 296°
2026-05-04 17:41 51.10330 58.44707 3661 ft 259 kts 295°
2026-05-04 17:41 51.11168 58.42162 4407 ft 260 kts 293°
2026-05-04 17:41 51.11991 58.39606 5151 ft 260 kts 291°
2026-05-04 17:42 51.12811 58.37028 5853 ft 262 kts 292°
2026-05-04 17:42 51.13632 58.34423 6513 ft 264 kts 292°
2026-05-04 17:42 51.14443 58.31831 7145 ft 266 kts 291°
2026-05-04 17:42 51.15278 58.29149 7794 ft 268 kts 291°
2026-05-04 17:43 51.16094 58.26525 8435 ft 269 kts 291°
2026-05-04 17:43 51.16928 58.23840 9057 ft 272 kts 290°
2026-05-04 17:43 51.17770 58.21126 9681 ft 274 kts 290°
2026-05-04 17:43 51.18622 58.18377 10104 ft 283 kts 290°
2026-05-04 17:44 51.19515 58.15469 10222 ft 302 kts 291°
2026-05-04 17:44 51.20479 58.12331 10350 ft 320 kts 291°
2026-05-04 17:44 51.21471 58.09105 10469 ft 337 kts 291°
2026-05-04 17:44 51.22531 58.05667 10611 ft 352 kts 291°
2026-05-04 17:45 51.23628 58.02116 10948 ft 360 kts 291°
2026-05-04 17:45 51.24739 57.98526 11455 ft 362 kts 291°
2026-05-04 17:45 51.25856 57.94910 11952 ft 365 kts 291°
2026-05-04 17:45 51.26979 57.91256 12447 ft 368 kts 291°
2026-05-04 17:46 51.28088 57.87574 12936 ft 370 kts 289°
2026-05-04 17:46 51.29169 57.83823 13438 ft 371 kts 289°
2026-05-04 17:46 51.30227 57.80055 13894 ft 374 kts 288°
2026-05-04 17:46 51.31288 57.76240 14307 ft 376 kts 288°
2026-05-04 17:47 51.32354 57.72409 14727 ft 378 kts 288°
2026-05-04 17:47 51.33428 57.68565 15132 ft 380 kts 288°
2026-05-04 17:47 51.34510 57.64703 15514 ft 382 kts 288°
2026-05-04 17:47 51.35599 57.60821 15897 ft 384 kts 288°
2026-05-04 17:48 51.36696 57.56914 16268 ft 385 kts 288°
2026-05-04 17:48 51.37799 57.52998 16639 ft 387 kts 288°
2026-05-04 17:48 51.38906 57.49054 16999 ft 389 kts 288°
2026-05-04 17:48 51.40011 57.45099 17421 ft 389 kts 287°
2026-05-04 17:49 51.41115 57.41134 17798 ft 390 kts 287°
2026-05-04 17:49 51.42217 57.37164 18176 ft 391 kts 287°
2026-05-04 17:49 51.43322 57.33172 18486 ft 393 kts 287°
2026-05-04 17:49 51.44432 57.29158 18799 ft 394 kts 287°
2026-05-04 17:50 51.45544 57.25134 19086 ft 396 kts 287°
2026-05-04 17:50 51.46661 57.21086 19379 ft 398 kts 287°
2026-05-04 17:50 51.47780 57.17024 19661 ft 400 kts 287°
2026-05-04 17:50 51.48909 57.12931 19949 ft 402 kts 287°
2026-05-04 17:51 51.50044 57.08820 20256 ft 404 kts 287°
2026-05-04 17:51 51.51181 57.04686 20570 ft 406 kts 287°
2026-05-04 17:51 51.52318 57.00533 20891 ft 408 kts 287°
2026-05-04 17:51 51.53459 56.96359 21279 ft 408 kts 286°
2026-05-04 17:52 51.54599 56.92175 21647 ft 409 kts 286°
2026-05-04 17:52 51.55740 56.87988 22009 ft 409 kts 286°
2026-05-04 17:52 51.56877 56.83792 22330 ft 410 kts 286°
2026-05-04 17:52 51.58016 56.79572 22635 ft 412 kts 286°
2026-05-04 17:53 51.59158 56.75339 22937 ft 414 kts 286°
2026-05-04 17:53 51.60304 56.71088 23236 ft 416 kts 286°
2026-05-04 17:53 51.61458 56.66812 23524 ft 417 kts 286°
2026-05-04 17:53 51.62616 56.62519 23795 ft 419 kts 286°
2026-05-04 17:54 51.63793 56.58220 24058 ft 421 kts 287°
2026-05-04 17:54 51.65061 56.53950 24318 ft 424 kts 289°
2026-05-04 17:54 51.66400 56.49714 24580 ft 426 kts 290°
2026-05-04 17:54 51.67779 56.45479 24833 ft 427 kts 290°
2026-05-04 17:55 51.69164 56.41240 25081 ft 428 kts 290°
2026-05-04 17:55 51.70540 56.36980 25330 ft 429 kts 289°
2026-05-04 17:55 51.71902 56.32697 25574 ft 429 kts 289°
2026-05-04 17:55 51.73251 56.28399 25803 ft 430 kts 289°
2026-05-04 17:56 51.74593 56.24081 26024 ft 431 kts 289°
2026-05-04 17:56 51.75932 56.19756 26235 ft 432 kts 289°
2026-05-04 17:56 51.77277 56.15412 26432 ft 433 kts 289°
2026-05-04 17:56 51.78623 56.11066 26631 ft 433 kts 289°
2026-05-04 17:57 51.79972 56.06713 26913 ft 433 kts 288°
2026-05-04 17:57 51.81316 56.02375 27156 ft 431 kts 288°
2026-05-04 17:57 51.82637 55.98106 27417 ft 429 kts 288°
2026-05-04 17:57 51.83967 55.93799 27683 ft 427 kts 288°
2026-05-04 17:58 51.85287 55.89525 28021 ft 423 kts 288°
2026-05-04 17:58 51.86596 55.85270 28313 ft 421 kts 288°
2026-05-04 17:58 51.87893 55.81038 28550 ft 420 kts 288°
2026-05-04 17:58 51.89187 55.76807 28777 ft 418 kts 288°
2026-05-04 17:59 51.90473 55.72590 28998 ft 417 kts 288°
2026-05-04 17:59 51.91754 55.68378 29216 ft 416 kts 288°
2026-05-04 17:59 51.94305 55.59968 29675 ft 416 kts 289°
2026-05-04 18:00 51.95581 55.55763 29856 ft 416 kts 289°
2026-05-04 18:00 51.96856 55.51557 30033 ft 415 kts 289°
2026-05-04 18:00 51.98126 55.47356 30191 ft 415 kts 289°
2026-05-04 18:00 51.99397 55.43148 30341 ft 415 kts 289°
2026-05-04 18:01 52.00666 55.38948 30493 ft 415 kts 289°
2026-05-04 18:01 52.01938 55.34734 30638 ft 415 kts 289°
2026-05-04 18:01 52.03201 55.30528 30781 ft 415 kts 289°
2026-05-04 18:02 52.05720 55.22090 31085 ft 415 kts 289°
2026-05-04 18:02 52.06979 55.17865 31286 ft 415 kts 291°
2026-05-04 18:02 52.08242 55.13637 31399 ft 417 kts 291°
2026-05-04 18:02 52.09507 55.09389 31533 ft 418 kts 291°
2026-05-04 18:03 52.10778 55.05118 31652 ft 419 kts 291°
2026-05-04 18:03 52.12049 55.00846 31782 ft 420 kts 291°
2026-05-04 18:03 52.13321 54.96562 31907 ft 421 kts 291°
2026-05-04 18:03 52.14591 54.92263 32037 ft 422 kts 291°
2026-05-04 18:04 52.15858 54.87958 32155 ft 421 kts 291°
2026-05-04 18:04 52.17121 54.83658 32334 ft 421 kts 291°
2026-05-04 18:04 52.19647 54.75068 32659 ft 420 kts 291°
2026-05-04 18:05 52.20907 54.70771 32850 ft 420 kts 292°
2026-05-04 18:05 52.22163 54.66473 32987 ft 420 kts 292°
2026-05-04 18:05 52.23417 54.62170 33132 ft 420 kts 292°
2026-05-04 18:05 52.24670 54.57869 33273 ft 420 kts 292°
2026-05-04 18:06 52.27172 54.49266 33558 ft 420 kts 292°
2026-05-04 18:06 52.28422 54.44964 33706 ft 419 kts 292°
2026-05-04 18:06 52.29669 54.40657 33871 ft 419 kts 292°
2026-05-04 18:07 52.32147 54.32066 33953 ft 417 kts 292°
2026-05-04 18:07 52.34744 54.23565 33955 ft 418 kts 295°
2026-05-04 18:08 52.37430 54.15119 33953 ft 419 kts 295°
2026-05-04 18:08 52.40097 54.06647 33952 ft 419 kts 294°
2026-05-04 18:09 52.45341 53.89605 33957 ft 419 kts 294°
2026-05-04 18:10 52.47958 53.81074 33966 ft 419 kts 294°
2026-05-04 18:10 52.50569 53.72533 33966 ft 419 kts 294°
2026-05-04 18:11 52.53177 53.63990 33960 ft 418 kts 294°
2026-05-04 18:11 52.55778 53.55448 33967 ft 418 kts 294°
2026-05-04 18:12 52.58364 53.46881 33964 ft 418 kts 294°
2026-05-04 18:12 52.60944 53.38303 33969 ft 419 kts 294°
2026-05-04 18:13 52.63507 53.29764 33975 ft 419 kts 294°
2026-05-04 18:14 52.67387 53.16777 33967 ft 420 kts 294°
2026-05-04 18:14 52.69948 53.08191 33968 ft 420 kts 294°
2026-05-04 18:15 52.75076 52.90849 33977 ft 421 kts 295°
2026-05-04 18:16 52.77639 52.82149 33971 ft 421 kts 295°
2026-05-04 18:16 52.80197 52.73444 33968 ft 422 kts 295°
2026-05-04 18:17 52.84013 52.60343 33946 ft 422 kts 294°
2026-05-04 18:18 52.87832 52.47186 33955 ft 423 kts 294°
2026-05-04 18:18 52.90370 52.38384 33957 ft 424 kts 294°
2026-05-04 18:19 52.94187 52.25130 33961 ft 425 kts 294°
2026-05-04 18:19 52.96729 52.16272 33967 ft 426 kts 294°
2026-05-04 18:20 52.99259 52.07386 33974 ft 426 kts 294°
2026-05-04 18:20 53.01777 51.98494 33974 ft 425 kts 294°
2026-05-04 18:21 53.04287 51.89599 33967 ft 425 kts 294°
2026-05-04 18:21 53.06797 51.80691 33972 ft 425 kts 294°
2026-05-04 18:22 53.09285 51.71840 33965 ft 425 kts 294°
2026-05-04 18:22 53.11776 51.62925 33964 ft 425 kts 294°
2026-05-04 18:23 53.14258 51.54005 33966 ft 425 kts 294°
2026-05-04 18:23 53.16735 51.45056 33955 ft 425 kts 294°
2026-05-04 18:24 53.18805 51.37553 33939 ft 426 kts 294°
2026-05-04 18:24 53.21278 51.28572 33940 ft 426 kts 294°
2026-05-04 18:25 53.23749 51.19576 33946 ft 427 kts 294°
2026-05-04 18:25 53.26213 51.10566 33941 ft 427 kts 294°
2026-05-04 18:26 53.28668 51.01546 33958 ft 427 kts 294°
2026-05-04 18:26 53.31117 50.92499 33949 ft 427 kts 294°
2026-05-04 18:27 53.33567 50.83441 33944 ft 428 kts 294°
2026-05-04 18:27 53.36014 50.74372 33945 ft 428 kts 294°
2026-05-04 18:28 53.38432 50.65333 33949 ft 428 kts 293°
2026-05-04 18:28 53.40854 50.56209 33951 ft 429 kts 293°
2026-05-04 18:29 53.43279 50.47070 33958 ft 429 kts 294°
2026-05-04 18:29 53.45710 50.37918 33957 ft 429 kts 294°
2026-05-04 18:30 53.49330 50.24169 33958 ft 429 kts 294°
2026-05-04 18:31 53.52008 50.15236 33960 ft 429 kts 303°
2026-05-04 18:31 53.55347 50.06925 33965 ft 429 kts 303°
2026-05-04 18:32 53.58676 49.98584 33965 ft 429 kts 303°
2026-05-04 18:32 53.61991 49.90225 33962 ft 429 kts 303°
2026-05-04 18:33 53.65299 49.81861 33963 ft 429 kts 303°
2026-05-04 18:33 53.68603 49.73487 33961 ft 429 kts 303°
2026-05-04 18:34 53.71899 49.65106 33965 ft 428 kts 304°
2026-05-04 18:34 53.75186 49.56726 33968 ft 428 kts 303°
2026-05-04 18:35 53.78465 49.48348 33961 ft 427 kts 303°
2026-05-04 18:35 53.81738 49.39966 33961 ft 427 kts 303°
2026-05-04 18:36 53.84994 49.31569 33956 ft 427 kts 303°
2026-05-04 18:36 53.88249 49.23161 33963 ft 426 kts 304°
2026-05-04 18:37 53.91491 49.14769 33958 ft 425 kts 304°